When you browse on this site, cookies collect data to enhance your experience and personalize the content and advertising you see.
Visit our Privacy Policy to learn more. By continuing to use the site, you agree to this use of cookies and data.
  • In Österreich
  • Länderverzeichnis
  • Für 7 Tage
  • Wassertemperatur
  • Satellitenkarten
  • Wetterkarte
  • News
  • Widgets
  • user-avatar
    Anmelden

    Stündliche Wetter Kalat

    Heute, 22 April, Montag

    Zeit Temperatur Niederschläge Wind Luftdruck Luftfeuchtigkeit
    00:00 -1°C° 0.2 mm 1 m/S 474 mmHg 66%
    01:00 -1°C° 0.2 mm 1 m/S 474 mmHg 71%
    02:00 -2°C° 0.2 mm 1 m/S 473 mmHg 77%
    03:00 -2°C° 0 mm 1 m/S 473 mmHg 75%
    04:00 -3°C° 0 mm 1 m/S 473 mmHg 73%
    05:00 -4°C° 0 mm 1 m/S 472 mmHg 73%
    06:00 -2°C° 0 mm 1 m/S 473 mmHg 69%
    07:00 -1°C° 0 mm 1 m/S 474 mmHg 65%
    08:00 +1°C° 0 mm 1 m/S 476 mmHg 61%
    09:00 +2°C° 0 mm 1 m/S 476 mmHg 57%
    10:00 +3°C° 0 mm 1 m/S 477 mmHg 52%
    11:00 +4°C° 0 mm 1 m/S 477 mmHg 48%
    12:00 +5°C° 0 mm 1 m/S 477 mmHg 47%
    13:00 +5°C° 0 mm 1 m/S 478 mmHg 46%
    14:00 +5°C° 0 mm 1 m/S 478 mmHg 45%
    15:00 +5°C° 0 mm 1 m/S 477 mmHg 44%
    16:00 +5°C° 0 mm 1 m/S 477 mmHg 43%
    17:00 +5°C° 0 mm 1 m/S 477 mmHg 43%
    18:00 +2°C° 0 mm 2 m/S 476 mmHg 46%
    19:00 +1°C° 0 mm 2 m/S 475 mmHg 49%
    20:00 -1°C° 0 mm 3 m/S 475 mmHg 53%
    21:00 -1°C° 0.1 mm 3 m/S 475 mmHg 60%
    22:00 -1°C° 0.1 mm 2 m/S 475 mmHg 68%
    23:00 -1°C° 0.1 mm 2 m/S 476 mmHg 75%

    Morgen, 23 April, Dienstag

    Zeit Temperatur Niederschläge Wind Luftdruck Luftfeuchtigkeit
    00:00 -2°C° 0.1 mm 2 m/S 475 mmHg 75%
    01:00 -2°C° 0.1 mm 2 m/S 475 mmHg 75%
    02:00 -2°C° 0.1 mm 2 m/S 475 mmHg 76%
    03:00 -3°C° 0 mm 2 m/S 474 mmHg 73%
    04:00 -3°C° 0 mm 2 m/S 474 mmHg 70%
    05:00 -4°C° 0 mm 2 m/S 473 mmHg 67%
    06:00 -2°C° 0 mm 2 m/S 475 mmHg 66%
    07:00 -1°C° 0 mm 3 m/S 476 mmHg 64%
    08:00 +1°C° 0 mm 3 m/S 477 mmHg 62%
    09:00 +1°C° 0.2 mm 3 m/S 477 mmHg 65%
    10:00 +1°C° 0.2 mm 3 m/S 477 mmHg 67%
    11:00 +2°C° 0.2 mm 3 m/S 477 mmHg 69%
    12:00 +2°C° 0.1 mm 3 m/S 478 mmHg 69%
    13:00 +3°C° 0.1 mm 3 m/S 478 mmHg 69%
    14:00 +4°C° 0.1 mm 4 m/S 478 mmHg 69%
    15:00 +4°C° 0.1 mm 3 m/S 478 mmHg 67%
    16:00 +4°C° 0.1 mm 3 m/S 478 mmHg 64%
    17:00 +4°C° 0.1 mm 3 m/S 478 mmHg 62%
    18:00 +3°C° 0.1 mm 3 m/S 477 mmHg 66%
    19:00 +2°C° 0.1 mm 3 m/S 476 mmHg 70%
    20:00 0°C° 0.1 mm 4 m/S 476 mmHg 74%
    21:00 0°C° 0.3 mm 4 m/S 476 mmHg 76%
    22:00 -1°C° 0.3 mm 4 m/S 476 mmHg 79%
    23:00 -1°C° 0.3 mm 4 m/S 476 mmHg 81%

    übermorgen, 24 April, Mittwoch

    Zeit Temperatur Niederschläge Wind Luftdruck Luftfeuchtigkeit
    00:00 -1°C° 0.5 mm 4 m/S 476 mmHg 82%
    01:00 -1°C° 0.5 mm 4 m/S 476 mmHg 83%
    02:00 -1°C° 0.5 mm 4 m/S 476 mmHg 83%
    03:00 -1°C° 0.4 mm 4 m/S 476 mmHg 84%
    04:00 -1°C° 0.4 mm 4 m/S 476 mmHg 84%
    05:00 -1°C° 0.4 mm 4 m/S 476 mmHg 84%
    06:00 -1°C° 0.5 mm 4 m/S 476 mmHg 83%
    07:00 0°C° 0.5 mm 4 m/S 477 mmHg 82%
    08:00 +1°C° 0.5 mm 5 m/S 477 mmHg 81%
    09:00 +1°C° 1.3 mm 4 m/S 478 mmHg 82%
    10:00 +2°C° 1.3 mm 3 m/S 478 mmHg 83%
    11:00 +2°C° 1.3 mm 3 m/S 478 mmHg 85%
    12:00 +3°C° 0.6 mm 3 m/S 478 mmHg 82%
    13:00 +3°C° 0.6 mm 4 m/S 479 mmHg 79%
    14:00 +3°C° 0.6 mm 5 m/S 479 mmHg 76%
    15:00 +3°C° 1 mm 4 m/S 478 mmHg 77%
    16:00 +3°C° 1 mm 4 m/S 478 mmHg 78%
    17:00 +3°C° 1 mm 3 m/S 477 mmHg 79%
    18:00 +2°C° 0.4 mm 3 m/S 477 mmHg 79%
    19:00 +2°C° 0.4 mm 3 m/S 477 mmHg 79%
    20:00 0°C° 0.4 mm 4 m/S 477 mmHg 79%
    21:00 0°C° 0.2 mm 4 m/S 477 mmHg 79%
    22:00 -1°C° 0.2 mm 4 m/S 477 mmHg 80%
    23:00 -1°C° 0.2 mm 4 m/S 477 mmHg 80%

    25 April, Donnerstag

    Zeit Temperatur Niederschläge Wind Luftdruck Luftfeuchtigkeit
    00:00 -2°C° 0.1 mm 4 m/S 476 mmHg 81%
    01:00 -2°C° 0.1 mm 4 m/S 476 mmHg 81%
    02:00 -3°C° 0.1 mm 4 m/S 475 mmHg 81%
    03:00 -4°C° 0 mm 4 m/S 474 mmHg 81%
    04:00 -4°C° 0 mm 4 m/S 474 mmHg 80%
    05:00 -5°C° 0 mm 4 m/S 474 mmHg 80%
    06:00 -5°C° 0 mm 5 m/S 474 mmHg 77%
    07:00 -4°C° 0 mm 5 m/S 475 mmHg 74%
    08:00 -2°C° 0 mm 5 m/S 476 mmHg 71%
    09:00 -2°C° 0 mm 6 m/S 477 mmHg 67%
    10:00 -2°C° 0 mm 6 m/S 477 mmHg 62%
    11:00 -1°C° 0 mm 7 m/S 478 mmHg 57%
    12:00 -1°C° 0.1 mm 7 m/S 478 mmHg 57%
    13:00 0°C° 0.1 mm 7 m/S 478 mmHg 57%
    14:00 0°C° 0.1 mm 7 m/S 478 mmHg 57%
    15:00 +1°C° 0.2 mm 6 m/S 478 mmHg 58%
    16:00 -1°C° 0.2 mm 6 m/S 478 mmHg 59%
    17:00 0°C° 0.2 mm 5 m/S 478 mmHg 61%
    18:00 -1°C° 0.1 mm 5 m/S 477 mmHg 66%
    19:00 -2°C° 0.1 mm 4 m/S 476 mmHg 70%
    20:00 -3°C° 0.1 mm 4 m/S 476 mmHg 75%
    21:00 -4°C° 0.1 mm 4 m/S 475 mmHg 77%
    22:00 -5°C° 0.1 mm 4 m/S 475 mmHg 79%
    23:00 -5°C° 0.1 mm 4 m/S 475 mmHg 81%

    26 April, Freitag

    Zeit Temperatur Niederschläge Wind Luftdruck Luftfeuchtigkeit
    00:00 -7°C° 0 mm 4 m/S 474 mmHg 81%
    01:00 -7°C° 0 mm 4 m/S 474 mmHg 80%
    02:00 -7°C° 0 mm 4 m/S 473 mmHg 80%
    03:00 -8°C° 0 mm 4 m/S 473 mmHg 79%
    04:00 -8°C° 0 mm 4 m/S 473 mmHg 77%
    05:00 -8°C° 0 mm 4 m/S 472 mmHg 76%
    06:00 -7°C° 0 mm 4 m/S 473 mmHg 73%
    07:00 -5°C° 0 mm 4 m/S 475 mmHg 70%
    08:00 -3°C° 0 mm 4 m/S 476 mmHg 67%
    09:00 -2°C° 0 mm 4 m/S 476 mmHg 61%
    10:00 -1°C° 0 mm 5 m/S 477 mmHg 56%
    11:00 0°C° 0 mm 5 m/S 478 mmHg 50%
    12:00 0°C° 0.1 mm 5 m/S 478 mmHg 50%
    13:00 0°C° 0.1 mm 5 m/S 478 mmHg 51%
    14:00 0°C° 0.1 mm 5 m/S 478 mmHg 51%
    15:00 0°C° 0.1 mm 4 m/S 477 mmHg 53%
    16:00 -1°C° 0.1 mm 4 m/S 477 mmHg 54%
    17:00 0°C° 0.1 mm 3 m/S 477 mmHg 56%
    18:00 -1°C° 0.2 mm 3 m/S 476 mmHg 61%
    19:00 -2°C° 0.2 mm 3 m/S 476 mmHg 65%
    20:00 -2°C° 0.2 mm 3 m/S 476 mmHg 70%
    21:00 -4°C° 0.2 mm 3 m/S 476 mmHg 72%
    22:00 -4°C° 0.2 mm 3 m/S 476 mmHg 73%
    23:00 -4°C° 0.2 mm 3 m/S 476 mmHg 74%

    27 April, Samstag

    Zeit Temperatur Niederschläge Wind Luftdruck Luftfeuchtigkeit
    00:00 -4°C° 0.2 mm 3 m/S 475 mmHg 75%
    01:00 -4°C° 0.2 mm 3 m/S 475 mmHg 75%
    02:00 -5°C° 0.2 mm 3 m/S 475 mmHg 76%
    03:00 -5°C° 0.1 mm 3 m/S 474 mmHg 76%
    04:00 -6°C° 0.1 mm 3 m/S 474 mmHg 76%
    05:00 -6°C° 0.1 mm 3 m/S 474 mmHg 77%
    06:00 -5°C° 0 mm 3 m/S 475 mmHg 74%
    07:00 -4°C° 0 mm 3 m/S 475 mmHg 71%
    08:00 -2°C° 0 mm 3 m/S 476 mmHg 68%
    09:00 -1°C° 0 mm 3 m/S 477 mmHg 64%
    10:00 -1°C° 0 mm 4 m/S 478 mmHg 59%
    11:00 0°C° 0 mm 4 m/S 478 mmHg 54%
    12:00 0°C° 0.1 mm 4 m/S 478 mmHg 55%
    13:00 0°C° 0.1 mm 4 m/S 478 mmHg 55%
    14:00 0°C° 0.1 mm 4 m/S 478 mmHg 55%
    15:00 0°C° 0.2 mm 4 m/S 478 mmHg 56%
    16:00 +1°C° 0.2 mm 3 m/S 477 mmHg 58%
    17:00 0°C° 0.2 mm 3 m/S 477 mmHg 59%
    18:00 -1°C° 0.3 mm 3 m/S 476 mmHg 64%
    19:00 -2°C° 0.3 mm 2 m/S 476 mmHg 68%
    20:00 -3°C° 0.3 mm 2 m/S 475 mmHg 73%
    21:00 -3°C° 0.4 mm 2 m/S 475 mmHg 75%
    22:00 -4°C° 0.4 mm 3 m/S 475 mmHg 77%
    23:00 -4°C° 0.4 mm 3 m/S 475 mmHg 78%
    Mehr zeigen